星链-30167 (STARLINK-30167 )

导读

STARLINK-30167是美国太空探索技术公司(SpaceX)研制的Starlink v2.0 mini卫星,于2023年7月28日发射升空,是SpaceX星链互联网星座的一员,运行在近地轨道,为全球提供高速互联网服务,可应用于民用通信、商业航运航空通信以及军事领域。目前卫星仍正常工作,是星链大规模低轨组网的重要组成部分。

Basic Information
目录编号:
57478
目录名称:
STARLINK-30167
国际标识:
2023-107X
轨道中心:
EARTH
卫星名称:
星链-30167
卫星全名:
星链-30167 (STARLINK-30167 )
卫星状态:
已陨落 最后检测时间 2023-09-07
发射日期:
2023-07-28 UTC
国别 :
美国 (US)
星等 :
--
Orbit Information
数据来源 国际轨道数据
星历时间: 2023-09-07T10:12:41+0800
轨道信息已过期1011天
半长轴: 6545.884km
偏心率: 0.0007263
轨道倾角: 42.953°
近地点辐角 41.367°
升交点赤经 249.776°
平近点角 136.881°
近地点: 162.994km
远地点: 172.504km
周期: 87.844分钟
每日圈数: 16.392693
Detailed Information
固有亮度:
5
最大亮度:
0.3
卫星平台:
Starlink v2.0 mini
覆盖范围:
全球
运营商:
太空探索技术公司
运营商所在国:
美国
制造商(研发单位):
太空探索技术公司
制造商所在国:
美国
使用方式:
暂无
Satellite Introduction
星链(Starlink)计划是由太空探索技术公司(SpaceX)提出的一个巨型低轨卫星互联网星座项目,计划在2019年至2024年间在太空搭建由约1.2万颗卫星组成的“星链”网络,其中1584颗将部署在地球上空550千米处的近地轨道,并从2020年开始工作。该卫星已陨落。